Showing default

ASCENT, 51287

Orbit data source: Space-Track

ASCENT, 51287 is a payload satellite owned by AFRL/RV (US) in GEO that was launched on Tue, 07 Dec 2021 UTC via an ATLAS V 551 launch vehicle from the Air Force Eastern Test Range (AFETR). Payload-class satellites include a variety of spacecraft equipped with specific instruments for various scientific and technological missions. These include communications satellites like Starlink; space stations such as the ISS; scientific satellites like the Hubble; Earth observation satellites from companies like Planet Labs, Umbra, and HawkEye 360; GPS; miniature CubeSats for education and research; and military/defense satellites.

Not visible in the next 10 days
Identifier
51287, 2021-118E
Orbit
GEO
Country
Flag of USUS
Related business
Manufacturer
Blue Canyon
Mission
Operational Defense Technology
Bus & Motor
CUBESAT 12U, Unknown motor
Mass
~25 kg wet, ~25 kg dry
Launch date (UTC)
2021-12-07 (5 years ago)
Launch vehicle
ATLAS V 551
Launch site
Air Force Eastern Test Range (AFETR)
Object type
Payload
Rocket body
Debris
Shape & HBR
Box, 0.2 m
Radar Cross Section
0.080 m², Large (>1 m²)

Expand to show TLE details & history
Last TLE update: 5 days ago

TLE from 5 days ago
0 ASCENT
1 51287U 21118E   26253.27752049  .00000027  00000-0  00000-0 0  9999
2 51287   4.3819  76.0903 0008341 122.2288 238.2047  1.01225301 17184
Epoch: 2026-09-10T06:39Z
TLE epoch observation values (Epoch: 2026-09-10T06:39:37.770Z)
Latitude
Longitude
-12.78666°
Altitude
35,539.214 km
Speed
3.083 km/s
True Right ascension
05h 05m 45s
True Declination
0° 00' 00"
Sunlit
Object was in daylight at epoch
Visualization orbit readout
Latitude
Unknown
Longitude
Unknown
Altitude
Unknown
Speed
Unknown
Apparent Right ascension
Unknown
Apparent Declination
Unknown
Sunlit
N/A
Visualization observer readout
Local Sidereal Time
09:00:51
Azimuth
Unknown
Elevation
Unknown
Doppler factor
Unknown
Orbital elements
Apogee altitude
35,557.407 km
Perigee altitude
35,487.509 km
Semi-major axis
41,900.595 km
Eccentricity
0.00083
Inclination
4.3819°
RAAN
76.0903°
Arg. of periapsis
122.2288°
True anomaly
238.12351°
Mean anomaly
238.2047°
Eccentric anomaly
238.1641°
Mean motion
0.25305 °/min
Orbital period
1,422.62 mins
BSTAR
0
Loading maneuver chart data...
Computing Atmospheric mass density...
Loading historical data...
Loading historical data...
Loading historical data...
Loading historical data...
Loading historical data...
Loading historical data...
Loading historical data...
Other satellites on launch #118 in the year 2021 (2021-12-07 UTC)

Documentation

Showing up to 5 results
|